AirNav   Bose ProFlight Aviation Headset
 
 637 users online  

0P2 Shoestring Aviation Airfield
Stewartstown, Pennsylvania, USA

GOING TO STEWARTSTOWN?


FAA INFORMATION EFFECTIVE 08 NOVEMBER 2018

Location

FAA Identifier: 0P2
Lat/Long: 39-47-46.5150N / 076-38-47.0150W
39-47.775250N / 076-38.783583W
39.7962542 / -76.6463931
(estimated)
Elevation: 1000 ft. / 305 m (estimated)
Variation: 10W (1985)
From city: 3 miles NW of STEWARTSTOWN, PA
Time zone: UTC -5 (UTC -4 during Daylight Saving Time)
Zip code: 17363

Airport Operations

Airport use: Open to the public
Activation date: 07/1963
Control tower: no
ARTCC: WASHINGTON CENTER
FSS: WILLIAMSPORT FLIGHT SERVICE STATION
NOTAMs facility: IPT (NOTAM-D service available)
Attendance: IREG
Wind indicator: yes
Segmented circle: no

Airport Communications

CTAF: 122.9
WX ASOS at THV (13 nm NW): 119.275 (717-792-5529)

Nearby radio navigation aids

VOR radial/distance  VOR name  Freq  Var
EMIr048/23.7WESTMINSTER VORTAC117.9008W
LRPr229/25.4LANCASTER VOR/DME117.3009W
HARr157/36.0HARRISBURG VORTAC112.5010W
BALr012/37.5BALTIMORE VORTAC115.1011W

 
NDB name  Hdg/Dist  Freq  Var  ID
ELLICOTT022/31.137111WFND ..-. -. -..
BELLGROVE196/38.632810WBZJ -... --.. .---

Airport Services

Parking: tiedowns
Airframe service: MAJOR
Powerplant service: MAJOR

Runway Information

Runway 6U/24U

Dimensions: 1000 x 100 ft. / 305 x 30 m
Surface: turf, in good condition
RUNWAY 6U  RUNWAY 24U
Latitude: 39-47.725333N39-47.825167N
Longitude: 076-38.868500W076-38.698667W
Elevation: 993.0 ft.995.0 ft.
Traffic pattern: leftright
Runway heading: 063 magnetic, 053 true243 magnetic, 233 true
Obstructions: 48 ft. tree, 394 ft. from runway, 41 ft. left of centerline, 8:1 slope to clear
RY 6U APCH RATIO 15:1 TO 260 FT DSPLCD THLD.
8 ft. other, 6 ft. from runway
RWY 24U RY 24U APCH RATION 24:1 TO DSPLCD THLD

Runway 15/33

Dimensions: 1000 x 100 ft. / 305 x 30 m
Surface: turf, in good condition
Runway edge markings: RWY 6/15/24/33 MKD WITH WHITE PATIO BLOCKS.
RUNWAY 15  RUNWAY 33
Traffic pattern: rightleft
Displaced threshold: no500 ft.
Markings: NSTD
Obstructions: none30 ft. tree, 106 ft. from runway, 41 ft. right of centerline, 3:1 slope to clear
RWY 33 APCH RATIO 20:1 TO DSPLCD THLD.

Airport Ownership and Management from official FAA records

Ownership: Privately-owned
Owner: THOMAS E. HOPKINS
14388 EBAUGH RD
STEWARTSTOWN, PA 17363
Phone 717-235-6724
Manager: THOMAS E HOPKINS
14388 EBAUGH RD
STEWARTSTOWN, PA 17363
Phone 717-235-6724

Airport Operational Statistics

Aircraft based on the field: 22
Single engine airplanes: 11
Ultralights: 11
    
Aircraft operations: avg 25/week *
77% local general aviation
23% transient general aviation
<1% military
* for 12-month period ending 05 July 2017

Additional Remarks

EXTSV ULTRALIGHT ACT ON & INVOF ARPT.
MAJOR AIRFRAME & POWERPLANT REPAIR FOR LIGHT SPORT ACFT ONLY.
DSPLCD THLDS MARKED WITH THREE WHITE PAVER EACH SIDE.
RWY 15/33 & 06/24 USED FOR ULTRALIGHT OPS.
RWY 24U DSPLCD 183 FT.
FOR CD CTC POTOMAC APCH AT 866-429-5882.

Instrument Procedures

There are no published instrument procedures at 0P2.

Some nearby airports with instrument procedures:

KTHV - York Airport (13 nm NW)
N71 - Donegal Springs Airpark (18 nm N)
KDMW - Carroll County Regional Airport/Jack B Poage Field (20 nm SW)
KMDT - Harrisburg International Airport (24 nm N)
0W3 - Harford County Airport (25 nm SE)
 
Loc | Ops | Rwys | IFR | FBO | Links
Com | Nav | Svcs | Stats | Notes


 
Area around 0P2 (Shoestring Aviation Airfield)
 
Road maps at: MapQuest Bing Google
 
Aerial photo
WARNING: Photo may not be current or correct
Aerial photo of 0P2 (Shoestring Aviation Airfield)
Do you have a better or more recent aerial photo of Shoestring Aviation Airfield that you would like to share? If so, please send us your photo.

 
Sectional chart

 
Airport distance calculator
Flying to Shoestring Aviation Airfield? Find the distance to fly.

From to 0P2

Sunrise and sunset
Times for 14-Nov-2018
 Local
(UTC-5)
 Zulu
(UTC)
Morning civil twilight06:2211:22
Sunrise06:5111:51
Sunset16:5121:51
Evening civil twilight17:2022:20

Current date and time
Zulu (UTC)  14-Nov-2018 12:36:35
Local (UTC-5)  14-Nov-2018 07:36:35
 
METAR
KTHV 
13nm NW 
141153Z AUTO 30006KT 10SM CLR 01/M06 A3037 RMK AO2 SLP291 70002 T00061056 10028 20000 51025
KDMW 
20nm SW 
141200Z AUTO 30005KT 10SM CLR 01/M08 A3037 RMK AO2
KMDT 
25nm N 
141156Z 29010KT 10SM OVC043 03/M06 A3037 RMK AO2 SLP287 70002 T00281056 10039 20028 51028
KLNS 
25nm NE 
141153Z 30007KT 10SM OVC045 02/M05 A3037 RMK AO2 SLP286 70002 T00171050 10033 20017 51029
TAF
KMDT 
25nm N 
141122Z 1412/1512 31010KT P6SM BKN050 FM141800 32007KT P6SM BKN250 FM150000 VRB03KT P6SM BKN200 FM150700 07004KT P6SM OVC100 FM151000 10005KT P6SM OVC050
KLNS 
25nm NE 
141122Z 1412/1512 29010KT P6SM BKN050 FM141800 32007KT P6SM BKN250 FM150000 VRB03KT P6SM BKN200 FM150700 05004KT P6SM OVC100 FM151000 08005KT P6SM OVC050
KMTN 
31nm S 
141120Z 1412/1512 31008KT P6SM FEW200 SCT250 FM150100 01005KT P6SM SCT200 BKN250
NOTAMs
Click for the latest NOTAMs
NOTAMs are issued by the DoD/FAA and will open in a separate window not controlled by AirNav.

 

 
 

Would you like to see your business listed on this page?

 If your business provides an interesting product or service to pilots, flight crews, aircraft, or users of the Shoestring Aviation Airfield, you should consider listing it here.  To start the listing process, click on the button below
 
Add a business
 

Other Pages about Shoestring Aviation Airfield

shoestringairport.com
WeatherLink Network
 
Update a link
 
Copyright © AirNav, LLC. All rights reserved. Privacy Policy  Contact